Regional Weather Roundup
Issued by NWS

Home | Current Version | Previous Version | Text Only | Print | Product List | Glossary Off
Versions: 1 2 3 4 5 6 7 8 9 10 11 12 13 14 15 16 17 18 19 20 21 22 23 24 25 26 27 28 29 30 31 32 33 34 35 36 37 38 39 40 41 42 43 44 45 46 47 48 49 50

000
ASUS43 KBIS 261502
RWRND

NORTH DAKOTA REGIONAL WEATHER ROUNDUP
NATIONAL WEATHER SERVICE BISMARCK ND
1000 AM CDT MON SEP 26 2016

NOTE: "FAIR" INDICATES FEW OR NO CLOUDS BELOW 12,000 FEET WITH NO
SIGNIFICANT WEATHER AND/OR OBSTRUCTIONS TO VISIBILITY.


NDZ001>003-009>011-017-261600-
NORTHWEST NORTH DAKOTA

CITY           SKY/WX    TMP DP  RH WIND       PRES   REMARKS
WILLISTON      SUNNY     47  38  71 SE3       30.22R
MINOT          SUNNY     54  36  50 W16G22    30.13S
MINOT AFB      SUNNY     52  36  53 NW15G23   30.12S
$$

NDZ018>021-031>035-040>046-261600-
SOUTHWEST NORTH DAKOTA

CITY           SKY/WX    TMP DP  RH WIND       PRES   REMARKS
BISMARCK       SUNNY     52  36  54 W12       30.17F
DICKINSON      SUNNY     50  41  71 W12       30.20S
GARRISON         N/A     52  39  61 NW13      30.16R
HETTINGER ARPT SUNNY     54  44  69 W5        30.23F
$$

NDZ004>008-012>016-024-026-027-054-261600-
NORTHEAST NORTH DAKOTA

CITY           SKY/WX    TMP DP  RH WIND       PRES   REMARKS
GRAND FORKS    SUNNY     55  39  54 W20G28    29.93F
GRND FRKS AFB  SUNNY     55  37  50 NW15G24   29.95F
DEVILS LAKE    SUNNY     50  38  63 W21       30.03F
$$

NDZ022-023-025-028>030-036>039-047>053-261600-
SOUTHEAST NORTH DAKOTA

CITY           SKY/WX    TMP DP  RH WIND       PRES   REMARKS
FARGO          SUNNY     57  38  48 W20G28    29.99S
JAMESTOWN      SUNNY     53  39  59 NW15      30.08R
$$





USA.gov is the U.S. government's official web portal to all federal, state and local government web resources and services.